K3JAR-3 Weather Reports


Display with metric or nautical units.
time (UTC)temp
F
wind
direction
speed
MPH
gust
MPH
rain 1hr
in
rain 24hr
in
rain mn
in
humidity
%
barometer
mb
20260901010050 94 120 2.0 4.0 0.00 0.00 0.00 37 1015.4
20260901005028 95 145 2.0 4.0 0.00 0.00 0.00 37 1015.3
20260901004031 97 114 3.0 6.0 0.00 0.00 0.00 36 1015.3
20260901003017 96 141 2.0 4.0 0.00 0.00 0.00 36 1015.3
20260901002020 97 154 4.0 6.0 0.00 0.00 0.00 35 1015.2
20260901001023 97 150 3.0 4.0 0.00 0.00 0.00 35 1015.2
20260901000026 98 148 5.0 6.0 0.00 0.00 0.00 35 1015.2
20260831235030 98 165 5.0 6.0 0.00 0.00 0.00 35 1015.3
20260831234015 99 150 3.0 6.0 0.00 0.00 0.00 34 1015.3
20260831233018 99 110 4.0 6.0 0.00 0.00 0.00 34 1015.3
20260831232022 99 148 5.0 7.0 0.00 0.00 0.00 34 1015.3
20260831231045 100 105 7.0 8.0 0.00 0.00 0.00 33 1015.3
20260831230048 98 150 3.0 5.0 0.00 0.00 0.00 35 1015.4
20260831225025 99 125 5.0 10.0 0.00 0.00 0.00 34 1015.4
20260831224017 100 132 4.0 6.0 0.00 0.00 0.00 33 1015.4
20260831223020 101 163 6.0 8.0 0.00 0.00 0.00 33 1015.5
20260831222017 101 117 3.0 6.0 0.00 0.00 0.00 33 1015.6
20260831221046 102 83 6.0 10.0 0.00 0.00 0.00 31 1015.6
20260831220032 102 143 5.0 8.0 0.00 0.00 0.00 32 1015.7
20260831215015 102 157 3.0 6.0 0.00 0.00 0.00 31 1015.9
20260831214019 101 140 5.0 8.0 0.00 0.00 0.00 32 1015.9
20260831213022 100 172 4.0 8.0 0.00 0.00 0.00 33 1016.0
20260831212024 102 100 5.0 8.0 0.00 0.00 0.00 32 1016.1
20260831211028 101 141 6.0 9.0 0.00 0.00 0.00 34 1016.3
20260831210051 99 163 5.0 7.0 0.00 0.00 0.00 34 1016.5
20260831205021 100 131 4.0 6.0 0.00 0.00 0.00 34 1016.6
20260831204100 99 147 5.0 9.0 0.00 0.00 0.00 34 1016.7
20260831203023 100 160 6.0 10.0 0.00 0.00 0.00 33 1016.8
20260831202026 102 137 7.0 9.0 0.00 0.00 0.00 32 1016.9
20260831201050 102 168 5.0 7.0 0.00 0.00 0.00 33 1017.0
20260831200015 102 132 5.0 9.0 0.00 0.00 0.00 34 1017.1
20260831195019 101 144 5.0 10.0 0.00 0.00 0.00 34 1017.3
20260831194021 102 144 6.0 10.0 0.00 0.00 0.00 34 1017.5
20260831193024 101 174 7.0 11.0 0.00 0.00 0.00 35 1017.5
20260831192028 99 172 6.0 12.0 0.00 0.00 0.00 36 1017.6
20260831191025 100 159 6.0 12.0 0.00 0.00 0.00 35 1017.7
20260831190101 100 172 7.0 11.0 0.00 0.00 0.00 36 1017.8
20260831185019 99 155 7.0 8.0 0.00 0.00 0.00 38 1017.8
20260831184057 101 162 6.0 8.0 0.00 0.00 0.00 37 1018.0
20260831183031 99 173 9.0 12.0 0.00 0.00 0.00 38 1018.2
20260831182029 99 117 6.0 10.0 0.00 0.00 0.00 39 1018.3
20260831181033 99 134 4.0 7.0 0.00 0.00 0.00 39 1018.5
20260831180017 99 176 5.0 8.0 0.00 0.00 0.00 40 1018.7
20260831175020 98 171 6.0 8.0 0.00 0.00 0.00 41 1019.0
20260831174024 98 167 5.0 9.0 0.00 0.00 0.00 41 1019.1
20260831173027 98 174 5.0 9.0 0.00 0.00 0.00 40 1019.1
20260831172029 96 181 5.0 8.0 0.00 0.00 0.00 41 1019.2
20260831171015 96 192 7.0 10.0 0.00 0.00 0.00 41 1019.3
20260831170018 96 163 6.0 9.0 0.00 0.00 0.00 42 1019.4
20260831165021 96 173 6.0 8.0 0.00 0.00 0.00 42 1019.4
20260831164025 95 201 5.0 8.0 0.00 0.00 0.00 43 1019.4
20260831163033 95 171 6.0 10.0 0.00 0.00 0.00 43 1019.4
20260831162033 94 168 6.0 7.0 0.00 0.00 0.00 44 1019.4
20260831161016 93 156 7.0 8.0 0.00 0.00 0.00 45 1019.5
20260831160020 93 187 5.0 7.0 0.00 0.00 0.00 46 1019.5
20260831155023 92 174 5.0 8.0 0.00 0.00 0.00 48 1019.4
20260831154046 92 191 7.0 9.0 0.00 0.00 0.00 48 1019.4
20260831153104 91 209 7.0 9.0 0.00 0.00 0.00 50 1019.3
20260831152021 91 185 5.0 8.0 0.00 0.00 0.00 52 1019.3
20260831151017 90 191 5.0 8.0 0.00 0.00 0.00 54 1019.2
20260831150015 89 190 6.0 9.0 0.00 0.00 0.00 57 1019.2
20260831145024 88 205 8.0 10.0 0.00 0.00 0.00 60 1019.1
20260831144049 87 202 7.0 12.0 0.00 0.00 0.00 62 1019.1
20260831143034 86 221 10.0 13.0 0.00 0.00 0.00 64 1019.0
20260831142021 85 191 7.0 9.0 0.00 0.00 0.00 66 1019.0
20260831141020 84 187 5.0 7.0 0.00 0.00 0.00 69 1019.0
20260831140023 83 201 6.0 9.0 0.00 0.00 0.00 70 1019.0
20260831135026 83 171 4.0 7.0 0.00 0.00 0.00 72 1018.9
20260831134030 82 173 6.0 8.0 0.00 0.00 0.00 74 1018.8
20260831133052 81 172 5.0 8.0 0.00 0.00 0.00 75 1018.8
20260831132018 81 172 6.0 8.0 0.00 0.00 0.00 76 1018.7
20260831131021 80 166 6.0 8.0 0.00 0.00 0.00 77 1018.4
20260831130024 80 163 5.0 7.0 0.00 0.00 0.00 77 1018.3
20260831125027 79 191 4.0 6.0 0.00 0.00 0.00 78 1018.1
20260831124031 79 180 5.0 7.0 0.00 0.00 0.00 79 1018.0
20260831123016 78 180 5.0 7.0 0.00 0.00 0.00 80 1017.9
20260831122039 77 180 4.0 6.0 0.00 0.00 0.00 80 1017.8
20260831121042 77 170 4.0 6.0 0.00 0.00 0.00 80 1017.8
20260831120026 77 174 4.0 5.0 0.00 0.00 0.00 79 1017.7
20260831115023 77 167 4.0 5.0 0.00 0.00 0.00 78 1017.5
20260831114021 77 150 3.0 4.0 0.00 0.00 0.00 77 1017.3
20260831113017 78 171 3.0 5.0 0.00 0.00 0.00 77 1017.2
20260831112020 78 179 3.0 5.0 0.00 0.00 0.00 76 1017.2
20260831111043 78 177 4.0 5.0 0.00 0.00 0.00 75 1017.2
20260831110026 78 170 3.0 4.0 0.00 0.00 0.00 75 1017.2
20260831105030 78 172 3.0 4.0 0.00 0.00 0.00 74 1017.2
20260831104033 78 165 4.0 4.0 0.00 0.00 0.00 74 1017.2
20260831103019 79 162 4.0 4.0 0.00 0.00 0.00 73 1017.2
20260831102022 79 158 4.0 4.0 0.00 0.00 0.00 72 1017.2
20260831101025 79 166 3.0 4.0 0.00 0.00 0.00 71 1017.1
20260831100028 79 178 4.0 5.0 0.00 0.00 0.00 71 1017.0
20260831095031 79 184 4.0 5.0 0.00 0.00 0.00 70 1017.2
20260831094017 80 170 4.0 5.0 0.00 0.00 0.00 69 1017.1
20260831093020 80 166 3.0 5.0 0.00 0.00 0.00 69 1017.0
20260831092023 80 150 4.0 5.0 0.00 0.00 0.00 68 1016.9
20260831091026 80 174 4.0 6.0 0.00 0.00 0.00 67 1016.8
20260831090109 80 169 3.0 4.0 0.00 0.00 0.00 65 1016.8
20260831085032 81 166 4.0 6.0 0.00 0.00 0.00 65 1016.8
20260831084018 81 169 4.0 5.0 0.00 0.00 0.00 64 1016.6
20260831083021 81 172 3.0 5.0 0.00 0.00 0.00 63 1016.6
20260831082024 81 169 5.0 8.0 0.00 0.00 0.00 62 1016.7
20260831081022 81 191 4.0 6.0 0.00 0.00 0.00 61 1016.8
20260831080019 82 192 4.0 6.0 0.00 0.00 0.00 60 1016.6
20260831075041 82 192 4.0 6.0 0.00 0.00 0.00 59 1016.6
20260831074019 82 176 4.0 6.0 0.00 0.00 0.00 59 1016.6
20260831073023 82 183 4.0 6.0 0.00 0.00 0.00 58 1016.6
20260831072026 83 168 5.0 8.0 0.00 0.00 0.00 57 1016.6
20260831071029 83 180 6.0 8.0 0.00 0.00 0.00 56 1016.6
20260831070053 83 193 6.0 9.0 0.00 0.00 0.00 56 1016.8
20260831065018 84 183 4.0 7.0 0.00 0.00 0.00 55 1016.8
20260831064041 84 173 5.0 7.0 0.00 0.00 0.00 54 1016.7
20260831063024 84 183 6.0 8.0 0.00 0.00 0.00 54 1016.6
20260831062027 84 172 5.0 6.0 0.00 0.00 0.00 54 1016.6
20260831061031 84 171 4.0 5.0 0.00 0.00 0.00 54 1016.6
20260831060036 84 168 3.0 4.0 0.00 0.00 0.00 55 1016.8
20260831055039 84 172 3.0 4.0 0.00 0.00 0.00 56 1016.8
20260831054022 84 166 3.0 4.0 0.00 0.00 0.00 56 1016.6
20260831053030 84 182 2.0 3.0 0.00 0.00 0.00 56 1016.6
20260831052034 83 154 1.0 2.0 0.00 0.00 0.00 56 1016.6
20260831051032 84 175 3.0 4.0 0.00 0.00 0.00 55 1016.6
20260831050037 84 168 1.0 4.0 0.00 0.00 0.00 55 1016.3
20260831045020 84 0.0 0.0 0.00 0.00 0.00 54 1016.3
20260831044030 85 158 1.0 2.0 0.00 0.00 0.00 53 1016.3
20260831043021 85 163 2.0 3.0 0.00 0.00 0.00 53 1016.3
20260831042018 86 156 3.0 4.0 0.00 0.00 0.00 52 1016.3
20260831041036 86 162 2.0 3.0 0.00 0.00 0.00 52 1016.3
20260831040019 86 159 2.0 3.0 0.00 0.00 0.00 52 1016.3
20260831035042 86 159 2.0 2.0 0.00 0.00 0.00 51 1016.1
20260831034030 87 150 1.0 2.0 0.00 0.00 0.00 51 1016.1
20260831033028 87 171 2.0 2.0 0.00 0.00 0.00 50 1016.0
20260831032032 88 155 2.0 3.0 0.00 0.00 0.00 50 1015.9
20260831031017 88 157 0.0 1.0 0.00 0.00 0.00 49 1015.9
20260831030020 88 153 2.0 2.0 0.00 0.00 0.00 49 1015.8
20260831025023 89 151 1.0 2.0 0.00 0.00 0.00 48 1015.6
20260831024026 89 158 2.0 3.0 0.00 0.00 0.00 47 1015.5
20260831023030 90 155 3.0 4.0 0.00 0.00 0.00 47 1015.4
20260831022035 90 166 3.0 3.0 0.00 0.00 0.00 47 1015.3
20260831021018 90 148 1.0 2.0 0.00 0.00 0.00 47 1015.1
20260831020021 90 117 1.0 2.0 0.00 0.00 0.00 45 1014.9
20260831015025 91 155 2.0 3.0 0.00 0.00 0.00 44 1014.7
20260831014028 92 169 2.0 3.0 0.00 0.00 0.00 44 1014.6
20260831013052 92 158 3.0 3.0 0.00 0.00 0.00 43 1014.6
20260831012017 92 160 2.0 3.0 0.00 0.00 0.00 42 1014.6
20260831011020 93 154 3.0 4.0 0.00 0.00 0.00 41 1014.5